Weather History for Price, UT

Change the Weather History Date:

Saturday, February 22, 2014

  Actual Average Record
Temperature  
Mean Temperature 37 °F -  
Max Temperature 51 °F 38 °F 58 °F (1972)
Min Temperature 23 °F 21 °F 6 °F (1975)
Degree Days  
Heating Degree Days 28    
Moisture  
Dew Point 9 °F    
Average Humidity 34    
Maximum Humidity 53    
Minimum Humidity 17    
Precipitation  
Precipitation 0.00 in - - ()
Sea Level Pressure  
Sea Level Pressure 29.98 in    
Wind  
Wind Speed 8 mph (NNW)    
Max Wind Speed 21 mph    
Max Gust Speed 30 mph    
Visibility 10 miles    
Events      
Averages and records for this station are not official NWS values.
T = Trace of Precipitation, MM = Missing Value Source: NWS Daily Summary

Daily Weather History Graph

Daily Weather History Graph

Search for Another Location

Airport:

Trip Planner

Search our weather history database for the weather conditions in past years. The results will help you decide how hot, cold, wet, or windy it might be!

Date:

Astronomy

Feb. 22, 2014 Rise Set
Actual Time 7:05 AM MST 6:07 PM MST
Civil Twilight 6:38 AM MST 6:34 PM MST
Nautical Twilight 6:07 AM MST 7:06 PM MST
Astronomical Twilight 5:36 AM MST 7:37 PM MST
Moon 1:04 AM MST (2/22) 11:21 AM MST (2/22)
Length of Visible Light 11h 56m
Length of Day
11h 01m
Waning Gibbous, 49% of the Moon is Illuminated
Feb 22
Waning Gibbous
Mar 1
New
Mar 8
First Quarter
Mar 16
Full
Mar 23
Last Quarter

Hourly Weather History & Observations

Time (MST) Temp. Windchill Dew Point Humidity Pressure Visibility Wind Dir Wind Speed Gust Speed Precip Events Conditions
12:53 AM 26.1 °F 16.8 °F 7.0 °F 44% 30.00 in 10.0 mi NNE 9.2 mph - N/A   Clear
1:53 AM 28.0 °F 24.2 °F 8.1 °F 43% 29.98 in 10.0 mi East 3.5 mph - N/A   Clear
2:53 AM 23.0 °F 17.0 °F 8.1 °F 53% 29.98 in 10.0 mi North 4.6 mph - N/A   Clear
3:53 AM 24.1 °F 16.0 °F 9.0 °F 53% 29.97 in 10.0 mi NNE 6.9 mph - N/A   Clear
4:53 AM 23.0 °F 17.0 °F 8.1 °F 53% 29.97 in 10.0 mi North 4.6 mph - N/A   Clear
5:53 AM 28.0 °F - 8.1 °F 43% 29.97 in 10.0 mi Calm Calm - N/A   Clear
6:53 AM 25.0 °F - 8.1 °F 49% 29.99 in 10.0 mi Calm Calm - N/A   Clear
7:53 AM 28.9 °F - 9.0 °F 43% 30.00 in 10.0 mi Calm Calm - N/A   Clear
8:53 AM 33.1 °F 28.7 °F 10.0 °F 38% 30.03 in 10.0 mi South 4.6 mph - N/A   Clear
9:53 AM 39.9 °F 35.1 °F 10.0 °F 29% 30.00 in 10.0 mi SSE 6.9 mph - N/A   Clear
10:53 AM 48.0 °F - 9.0 °F 21% 29.96 in 10.0 mi West 9.2 mph - N/A   Clear
11:53 AM 50.0 °F - 6.1 °F 17% 29.96 in 10.0 mi West 18.4 mph 29.9 mph N/A   Clear
12:53 PM 50.0 °F - 7.0 °F 18% 29.96 in 10.0 mi West 18.4 mph 28.8 mph N/A   Clear
1:53 PM 51.1 °F - 7.0 °F 17% 29.93 in 10.0 mi WNW 20.7 mph 27.6 mph N/A   Clear
2:53 PM 48.9 °F - 7.0 °F 18% 29.96 in 10.0 mi WNW 18.4 mph 26.5 mph N/A   Partly Cloudy
3:53 PM 50.0 °F - 9.0 °F 19% 29.95 in 10.0 mi West 19.6 mph 29.9 mph N/A   Clear
4:53 PM 48.0 °F - 9.0 °F 21% 29.97 in 10.0 mi West 13.8 mph 21.9 mph N/A   Partly Cloudy
5:53 PM 45.0 °F 39.7 °F 10.0 °F 24% 29.97 in 10.0 mi WNW 10.4 mph - N/A   Clear
6:53 PM 42.1 °F 35.2 °F 10.9 °F 28% 30.00 in 10.0 mi NW 12.7 mph - N/A   Clear
7:53 PM 41.0 °F 34.7 °F 10.0 °F 28% 29.99 in 10.0 mi NW 10.4 mph - N/A   Clear
8:53 PM 37.0 °F 32.4 °F 10.0 °F 33% 30.00 in 10.0 mi East 5.8 mph - N/A   Clear
9:53 PM 28.9 °F 25.2 °F 8.1 °F 41% 30.02 in 10.0 mi North 3.5 mph - N/A   Clear
10:53 PM 30.0 °F 25.2 °F 9.0 °F 41% 30.00 in 10.0 mi East 4.6 mph - N/A   Clear
11:53 PM 28.0 °F 20.0 °F 9.0 °F 45% 30.00 in 10.0 mi NE 8.1 mph - N/A   Clear